Regional Weather Roundup
Issued by NWS

Home | Current Version | Previous Version | Graphics & Text | Print | Product List | Glossary On
Versions: 1 2 3 4 5 6 7 8 9 10 11 12 13 14 15 16 17 18 19 20 21 22 23 24 25 26 27 28 29 30 31 32 33 34 35 36 37 38 39 40 41 42 43 44 45 46 47 48 49 50
000
ASUS43 KLMK 271502
RWRKY
KENTUCKY REGIONAL WEATHER ROUNDUP
NATIONAL WEATHER SERVICE LOUISVILLE KY
1100 AM EDT WED MAY 27 2015

NOTE "FAIR" INDICATES FEW OR NO CLOUDS BELOW 12,000 FEET
WITH NO SIGNIFICANT WEATHER AND/OR OBSTRUCTIONS TO VISIBILITY.

KYZ001>023-026-027-061>063-070>075-271600-
WESTERN AND SOUTH CENTRAL KENTUCKY

CITY           SKY/WX    TMP DP  RH WIND       PRES   REMARKS
PADUCAH        CLOUDY    71  62  73 NW8       30.13R
HENDERSON      PTSUNNY   75  64  69 SW9       30.10R
OWENSBORO      PTSUNNY   77  69  76 SW9       30.13R
HOPKINSVILLE   MOSUNNY   77  69  76 S15       30.15R
BOWLING GREEN  CLOUDY    77  68  73 S10       30.17S
GLASGOW        NOT AVBL
$$

KYZ024-025-028>034-038-045-046-053-271600-
NORTH CENTRAL KENTUCKY

CITY           SKY/WX    TMP DP  RH WIND       PRES   REMARKS
LOUISVILLE/SDF PTSUNNY   76  66  71 S9        30.13F
LOUISVILLE/LOU CLOUDY    75  67  76 S10       30.14F
FORT KNOX      PTSUNNY   74  67  78 S8        30.13S
$$

KYZ035>037-039>044-047>052-055>060-089>105-271600-
NORTHEAST KENTUCKY

CITY           SKY/WX    TMP DP  RH WIND       PRES   REMARKS
LEXINGTON      CLOUDY    74  67  78 SW13      30.18S
COVINGTON      PTSUNNY   74  64  71 SW13G20   30.13F
FRANKFORT      MOSUNNY   74  65  73 SW10G18   30.15F
$$

KYZ054-064>069-076>088-106>120-271600-
SOUTHEAST KENTUCKY

CITY           SKY/WX    TMP DP  RH WIND       PRES   REMARKS
JACKSON        CLOUDY    70  65  84 CALM      30.24S
LONDON         CLOUDY    72  62  71 SW7       30.23S
SOMERSET       NOT AVBL
MIDDLESBORO    CLOUDY    73  64  73 S6        30.25F
MONTICELLO     CLOUDY    74  68  81 W7        30.24F
$$




USA.gov is the U.S. government's official web portal to all federal, state and local government web resources and services.